Weather History for KFWC - January, 2014

Change the Weather History Date:

Saturday, January 4, 2014

  Actual Average (KMVN) Record (KMVN)
Temperature  
Mean Temperature 32 °F -  
Max Temperature 41 °F 38 °F 66 °F (1997)
Min Temperature 24 °F 24 °F 3 °F (1999)
Degree Days  
Heating Degree Days 32    
Moisture  
Dew Point 17 °F    
Average Humidity 50    
Maximum Humidity 65    
Minimum Humidity 36    
Precipitation  
Precipitation 0.00 in - - ()
Sea Level Pressure  
Sea Level Pressure 30.05 in    
Wind  
Wind Speed 11 mph (South)    
Max Wind Speed 20 mph    
Max Gust Speed 26 mph    
Visibility 10 miles    
Events Rain    
Averages and records for this station are not official NWS values.
T = Trace of Precipitation, MM = Missing Value Source: NWS Daily Summary

Daily Weather History Graph

Daily Weather History Graph

Search for Another Location

Airport or City:

Trip Planner

Search our weather history database for the weather conditions in past years. The results will help you decide how hot, cold, wet, or windy it might be!

Date:

Astronomy

Jan. 04, 2014 Rise Set
Actual Time 7:11 AM CST 4:46 PM CST
Civil Twilight 6:41 AM CST 5:15 PM CST
Nautical Twilight 6:08 AM CST 5:48 PM CST
Astronomical Twilight 5:36 AM CST 6:21 PM CST
Moon 9:19 AM CST (1/4) 9:02 PM CST (1/4)
Length of Visible Light 10h 34m
Length of Day
9h 35m
Waxing Crescent, 15% of the Moon is Illuminated
Jan 4
Waxing Crescent
Jan 7
First Quarter
Jan 15
Full
Jan 23
Last Quarter
Jan 30
New

Hourly Weather History & Observations

Time (CST) Temp. Windchill Dew Point Humidity Pressure Visibility Wind Dir Wind Speed Gust Speed Precip Events Conditions
12:15 AM 24.8 °F 12.9 °F 10.4 °F 54% 30.13 in 10.0 mi South 13.8 mph - N/A   Clear
12:35 AM 24.8 °F 14.0 °F 10.4 °F 54% 30.12 in 10.0 mi South 11.5 mph - N/A   Clear
12:55 AM 24.8 °F 12.9 °F 10.4 °F 54% 30.12 in 10.0 mi South 13.8 mph - N/A   Clear
1:15 AM 24.8 °F 14.6 °F 10.4 °F 54% 30.11 in 10.0 mi South 10.4 mph 18.4 mph N/A   Clear
1:35 AM 24.8 °F 14.6 °F 10.4 °F 54% 30.12 in 10.0 mi South 10.4 mph - N/A   Clear
1:55 AM 24.8 °F 14.0 °F 12.2 °F 59% 30.11 in 10.0 mi South 11.5 mph - N/A   Clear
2:15 AM 24.8 °F 14.6 °F 12.2 °F 59% 30.12 in 10.0 mi South 10.4 mph - N/A   Clear
2:35 AM 24.8 °F 14.6 °F 12.2 °F 59% 30.12 in 10.0 mi South 10.4 mph - N/A   Clear
2:55 AM 24.8 °F 13.4 °F 12.2 °F 59% 30.11 in 10.0 mi South 12.7 mph - N/A   Clear
3:15 AM 26.6 °F 15.7 °F 10.4 °F 51% 30.11 in 10.0 mi South 12.7 mph - N/A   Clear
3:35 AM 26.6 °F 15.2 °F 10.4 °F 51% 30.11 in 10.0 mi South 13.8 mph - N/A   Clear
3:55 AM 26.6 °F 15.7 °F 12.2 °F 55% 30.10 in 10.0 mi South 12.7 mph 17.3 mph N/A   Clear
4:15 AM 26.6 °F 15.7 °F 12.2 °F 55% 30.10 in 10.0 mi South 12.7 mph - N/A   Clear
4:35 AM 26.6 °F 15.7 °F 12.2 °F 55% 30.10 in 10.0 mi South 12.7 mph - N/A   Clear
4:55 AM 26.6 °F 14.7 °F 12.2 °F 55% 30.09 in 10.0 mi South 15.0 mph 19.6 mph N/A   Clear
5:15 AM 26.6 °F 14.3 °F 12.2 °F 55% 30.08 in 10.0 mi South 16.1 mph 19.6 mph N/A   Clear
5:35 AM 26.6 °F 14.7 °F 12.2 °F 55% 30.08 in 10.0 mi South 15.0 mph - N/A   Clear
5:55 AM 26.6 °F 14.7 °F 12.2 °F 55% 30.09 in 10.0 mi South 15.0 mph 20.7 mph N/A   Clear
6:15 AM 26.6 °F 14.7 °F 12.2 °F 55% 30.08 in 10.0 mi South 15.0 mph - N/A   Clear
6:35 AM 26.6 °F 15.2 °F 12.2 °F 55% 30.08 in 10.0 mi South 13.8 mph - N/A   Clear
6:55 AM 26.6 °F 15.7 °F 12.2 °F 55% 30.08 in 10.0 mi South 12.7 mph - N/A   Clear
7:15 AM 26.6 °F 14.3 °F 12.2 °F 55% 30.08 in 10.0 mi South 16.1 mph - N/A   Clear
7:35 AM 28.4 °F 16.6 °F 12.2 °F 51% 30.08 in 10.0 mi South 16.1 mph 19.6 mph N/A   Clear
7:55 AM 28.4 °F 16.6 °F 12.2 °F 51% 30.08 in 10.0 mi South 16.1 mph - N/A   Clear
8:15 AM 28.4 °F 16.6 °F 14.0 °F 55% 30.09 in 10.0 mi South 16.1 mph 21.9 mph N/A   Clear
8:35 AM 30.2 °F 18.9 °F 14.0 °F 51% 30.09 in 10.0 mi South 16.1 mph - N/A   Clear
8:55 AM 30.2 °F 19.3 °F 14.0 °F 51% 30.09 in 10.0 mi South 15.0 mph 19.6 mph N/A   Clear
9:15 AM 33.8 °F 23.5 °F 14.0 °F 44% 30.09 in 10.0 mi South 16.1 mph 24.2 mph N/A   Clear
9:35 AM 33.8 °F 23.5 °F 14.0 °F 44% 30.09 in 10.0 mi South 16.1 mph 24.2 mph N/A   Clear
9:55 AM 35.6 °F 25.9 °F 15.8 °F 44% 30.09 in 10.0 mi SSW 16.1 mph 23.0 mph N/A   Clear
10:15 AM 35.6 °F 26.2 °F 15.8 °F 44% 30.09 in 10.0 mi SSW 15.0 mph 19.6 mph N/A   Clear
10:35 AM 37.4 °F 28.2 °F 15.8 °F 41% 30.09 in 10.0 mi SSW 16.1 mph 20.7 mph N/A   Clear
10:55 AM 37.4 °F 27.8 °F 15.8 °F 41% 30.07 in 10.0 mi SSW 17.3 mph 26.5 mph N/A   Scattered Clouds
11:15 AM 37.4 °F 27.2 °F 15.8 °F 41% 30.06 in 10.0 mi SSW 19.6 mph 25.3 mph N/A   Mostly Cloudy
11:35 AM 39.2 °F 31.2 °F 17.6 °F 42% 30.04 in 10.0 mi SSW 13.8 mph 25.3 mph N/A   Mostly Cloudy
11:55 AM 39.2 °F 29.8 °F 15.8 °F 39% 30.03 in 10.0 mi SSW 18.4 mph 25.3 mph N/A   Scattered Clouds
12:15 PM 39.2 °F 30.2 °F 15.8 °F 39% 30.03 in 10.0 mi SSW 17.3 mph 24.2 mph N/A   Scattered Clouds
12:35 PM 41.0 °F 33.5 °F 15.8 °F 36% 30.03 in 10.0 mi SSW 13.8 mph - N/A   Mostly Cloudy
12:55 PM 39.2 °F 31.2 °F 15.8 °F 39% 30.01 in 10.0 mi South 13.8 mph 19.6 mph N/A   Overcast
1:15 PM 39.2 °F 32.0 °F 17.6 °F 42% 30.00 in 10.0 mi South 11.5 mph - N/A   Overcast
1:35 PM 39.2 °F 32.5 °F 19.4 °F 45% 30.00 in 10.0 mi South 10.4 mph - N/A   Overcast
1:55 PM 39.2 °F 33.6 °F 19.4 °F 45% 29.99 in 10.0 mi South 8.1 mph - N/A   Overcast
2:15 PM 39.2 °F 33.6 °F 21.2 °F 49% 29.99 in 10.0 mi South 8.1 mph - N/A   Overcast
2:35 PM 39.2 °F 32.0 °F 19.4 °F 45% 29.98 in 10.0 mi South 11.5 mph 18.4 mph N/A   Overcast
2:55 PM 39.2 °F 32.5 °F 19.4 °F 45% 29.99 in 10.0 mi South 10.4 mph - N/A   Overcast
3:15 PM 39.2 °F 32.5 °F 19.4 °F 45% 29.99 in 10.0 mi SSW 10.4 mph - N/A   Overcast
3:35 PM 39.2 °F 34.2 °F 19.4 °F 45% 29.99 in 10.0 mi SSW 6.9 mph - N/A   Overcast
3:55 PM 39.2 °F 34.2 °F 19.4 °F 45% 29.99 in 10.0 mi SSW 6.9 mph - N/A   Overcast
4:15 PM 39.2 °F 35.9 °F 21.2 °F 49% 29.99 in 10.0 mi South 4.6 mph - N/A   Overcast
4:35 PM 37.4 °F 33.8 °F 21.2 °F 52% 29.99 in 10.0 mi South 4.6 mph - N/A   Overcast
4:55 PM 37.4 °F 34.9 °F 21.2 °F 52% 29.98 in 10.0 mi South 3.5 mph - N/A   Overcast
5:15 PM 37.4 °F 33.8 °F 21.2 °F 52% 29.99 in 10.0 mi South 4.6 mph - N/A   Overcast
5:35 PM 37.4 °F 33.8 °F 19.4 °F 48% 30.00 in 10.0 mi SSW 4.6 mph - N/A   Overcast
5:55 PM 39.2 °F 37.0 °F 19.4 °F 45% 30.00 in 10.0 mi SSW 3.5 mph - N/A   Overcast
6:15 PM 37.4 °F - 21.2 °F 52% 30.00 in 10.0 mi Calm Calm - N/A   Overcast
6:35 PM 37.4 °F - 21.2 °F 52% 30.00 in 10.0 mi Calm Calm - N/A   Overcast
6:55 PM 35.6 °F - 24.8 °F 65% 30.00 in 10.0 mi Calm Calm - N/A   Overcast
7:15 PM 37.4 °F - 21.2 °F 52% 30.01 in 10.0 mi Calm Calm - N/A   Overcast
7:35 PM 37.4 °F - 19.4 °F 48% 30.00 in 10.0 mi Calm Calm - N/A   Overcast
7:55 PM 37.4 °F - 19.4 °F 48% 30.00 in 10.0 mi Calm Calm - N/A   Overcast
8:15 PM 37.4 °F - 21.2 °F 52% 30.00 in 10.0 mi Calm Calm - N/A   Overcast
8:35 PM 37.4 °F - 21.2 °F 52% 30.00 in 10.0 mi Calm Calm - N/A   Overcast
8:55 PM 37.4 °F - 19.4 °F 48% 30.01 in 10.0 mi Calm Calm - N/A   Overcast
9:15 PM 37.4 °F 34.9 °F 19.4 °F 48% 30.01 in 10.0 mi South 3.5 mph - N/A   Overcast
9:35 PM 39.2 °F 35.0 °F 19.4 °F 45% 30.00 in 10.0 mi South 5.8 mph - N/A   Overcast
9:55 PM 39.2 °F 37.0 °F 19.4 °F 45% 30.00 in 10.0 mi South 3.5 mph - N/A   Overcast
10:15 PM 37.4 °F 33.8 °F 21.2 °F 52% 30.00 in 10.0 mi South 4.6 mph - N/A   Overcast
10:35 PM 39.2 °F 35.9 °F 21.2 °F 49% 30.00 in 10.0 mi South 4.6 mph - N/A   Overcast
10:55 PM 39.2 °F 37.0 °F 23.0 °F 52% 30.00 in 10.0 mi SSW 3.5 mph - N/A   Drizzle
11:15 PM 39.2 °F 37.0 °F 21.2 °F 49% 30.00 in 10.0 mi South 3.5 mph - N/A Rain Light Rain
11:35 PM 39.2 °F - 23.0 °F 52% 29.99 in 10.0 mi Calm Calm - N/A   Overcast
11:55 PM 39.2 °F - 23.0 °F 52% 29.99 in 10.0 mi Calm Calm - N/A   Overcast